KD3ADD Weather Reports


Display with metric or nautical units.
time (UTC)temp
F
wind
direction
speed
MPH
gust
MPH
rain 1hr
in
rain 24hr
in
rain mn
in
humidity
%
barometer
mb
20260510022038 55 0 0.0 2.0 0.00 0.03 0.02 83 1010.4
20260510021551 55 0 0.0 2.0 0.00 0.03 0.02 83 1010.5
20260510021036 55 0 0.0 2.0 0.00 0.03 0.02 83 1010.4
20260510020534 55 0 0.0 0.0 0.00 0.03 0.02 83 1010.3
20260510020047 55 0 0.0 0.0 0.00 0.03 0.02 82 1010.1
20260510015537 56 0 0.0 2.0 0.00 0.03 0.02 82 1010.1
20260510015033 56 0 0.0 2.0 0.00 0.03 0.02 82 1010.0
20260510014547 56 0 0.0 2.0 0.00 0.03 0.02 82 1010.0
20260510014037 56 0 0.0 0.0 0.00 0.03 0.02 81 1009.9
20260510013534 56 0 0.0 0.0 0.00 0.03 0.02 81 1009.8
20260510013053 56 0 0.0 0.0 0.00 0.03 0.02 81 1009.9
20260510012533 57 0 0.0 0.0 0.00 0.03 0.02 81 1009.8
20260510012033 57 0 0.0 0.0 0.00 0.03 0.02 81 1009.7
20260510011554 57 0 0.0 2.0 0.00 0.03 0.02 80 1009.7
20260510011033 57 0 0.0 2.0 0.00 0.03 0.02 80 1009.7
20260510010538 57 187 0.0 2.0 0.00 0.03 0.02 80 1009.6
20260510010046 57 0 0.0 2.0 0.00 0.03 0.02 79 1009.6
20260510005537 57 0 0.0 0.0 0.00 0.03 0.02 79 1009.5
20260510005034 58 0 0.0 0.0 0.00 0.03 0.02 78 1009.4
20260510004553 58 0 0.0 2.0 0.00 0.03 0.02 78 1009.5
20260510004036 58 0 0.0 2.0 0.00 0.03 0.02 78 1009.4
20260510003534 58 0 0.0 0.0 0.00 0.03 0.02 78 1009.5
20260510003048 58 0 0.0 0.0 0.00 0.03 0.02 77 1009.5
20260510002533 59 0 0.0 0.0 0.00 0.03 0.02 77 1009.5
20260510002037 59 0 0.0 0.0 0.00 0.03 0.02 77 1009.4
20260510001545 59 0 0.0 2.0 0.00 0.03 0.02 77 1009.3
20260510001036 59 0 0.0 2.0 0.00 0.03 0.02 76 1009.2
20260510000536 59 0 0.0 2.0 0.00 0.03 0.02 76 1009.0
20260510000050 59 187 0.0 2.0 0.00 0.03 0.02 76 1009.0
20260509235534 60 0 0.0 0.0 0.00 0.03 0.02 76 1009.0
20260509235034 60 0 0.0 2.0 0.00 0.03 0.02 76 1009.0
20260509234551 60 0 0.0 2.0 0.00 0.03 0.02 75 1009.0
20260509234034 60 0 0.0 2.0 0.00 0.03 0.02 75 1009.0
20260509233537 60 0 0.0 2.0 0.00 0.03 0.02 75 1009.1
20260509233048 60 183 0.0 3.0 0.00 0.03 0.02 74 1008.9
20260509232537 60 184 1.0 3.0 0.00 0.03 0.02 74 1008.9
20260509232037 60 190 1.0 3.0 0.00 0.03 0.02 73 1008.9
20260509231548 61 181 1.0 3.0 0.00 0.03 0.02 73 1008.8
20260509231033 61 179 1.0 5.0 0.00 0.03 0.02 73 1008.9
20260509230537 61 190 1.0 5.0 0.00 0.03 0.02 72 1008.9
20260509230051 61 205 1.0 2.0 0.00 0.03 0.02 72 1008.9
20260509225534 61 215 1.0 3.0 0.00 0.03 0.02 72 1009.0
20260509225033 61 215 1.0 3.0 0.00 0.03 0.02 72 1008.9
20260509224546 61 229 1.0 3.0 0.00 0.03 0.02 72 1009.0
20260509224034 61 182 1.0 3.0 0.00 0.03 0.02 72 1009.0
20260509223534 61 190 1.0 3.0 0.00 0.03 0.02 72 1008.9
20260509223047 61 195 1.0 4.0 0.00 0.03 0.02 72 1008.9
20260509222536 61 175 2.0 4.0 0.00 0.03 0.02 71 1009.0
20260509222036 61 186 1.0 3.0 0.00 0.03 0.02 72 1009.0
20260509221545 61 190 1.0 3.0 0.00 0.03 0.02 71 1009.0
20260509221034 61 204 2.0 5.0 0.00 0.03 0.02 71 1008.9
20260509220537 61 192 2.0 6.0 0.00 0.03 0.02 71 1009.0
20260509220053 61 178 2.0 5.0 0.00 0.03 0.02 73 1009.0
20260509215535 61 192 1.0 6.0 0.00 0.03 0.02 72 1009.0
20260509215034 61 196 2.0 6.0 0.00 0.03 0.02 71 1009.1
20260509214605 61 190 1.0 3.0 0.00 0.03 0.02 72 1009.2
20260509214037 61 251 1.0 4.0 0.00 0.03 0.02 74 1009.2
20260509213537 60 201 2.0 5.0 0.00 0.03 0.02 73 1009.2
20260509213048 60 186 2.0 5.0 0.00 0.03 0.02 74 1009.3
20260509212536 60 189 2.0 5.0 0.01 0.03 0.02 74 1009.3
20260509212037 61 213 1.0 3.0 0.01 0.03 0.02 75 1009.4
20260509211553 60 197 1.0 3.0 0.01 0.03 0.02 77 1009.5
20260509211035 60 186 1.0 3.0 0.01 0.03 0.02 78 1009.5
20260509210538 59 51 1.0 2.0 0.01 0.03 0.02 78 1009.6
20260509210046 59 74 0.0 2.0 0.01 0.03 0.02 79 1009.6
20260509205537 59 59 1.0 2.0 0.01 0.03 0.02 79 1009.7
20260509205037 59 96 0.0 4.0 0.01 0.03 0.02 78 1009.8
20260509204547 59 79 0.0 4.0 0.01 0.03 0.02 79 1009.8
20260509204034 59 103 2.0 4.0 0.01 0.03 0.02 78 1010.0
20260509203536 59 17 1.0 2.0 0.01 0.03 0.02 78 1010.0
20260509203057 59 0 0.0 2.0 0.00 0.02 0.01 78 1009.9
20260509202534 59 0 0.0 2.0 0.00 0.02 0.01 78 1010.0
20260509202034 59 71 0.0 3.0 0.00 0.02 0.01 78 1009.6
20260509201547 59 84 0.0 3.0 0.00 0.02 0.01 79 1009.3
20260509201034 59 167 0.0 2.0 0.00 0.02 0.01 78 1009.4
20260509200536 59 137 0.0 2.0 0.00 0.02 0.01 78 1009.6
20260509200047 59 85 0.0 2.0 0.00 0.02 0.01 76 1009.7
20260509195536 59 88 0.0 2.0 0.00 0.02 0.01 75 1010.0
20260509195034 59 153 0.0 2.0 0.00 0.02 0.01 76 1010.0
20260509194552 59 0 0.0 2.0 0.00 0.02 0.01 76 1010.1
20260509194037 60 159 0.0 2.0 0.00 0.02 0.01 75 1010.1
20260509193538 60 0 0.0 3.0 0.00 0.02 0.01 75 1010.2
20260509193051 60 68 1.0 3.0 0.00 0.02 0.01 76 1010.1
20260509192537 60 329 1.0 2.0 0.00 0.02 0.01 75 1010.2
20260509192037 59 327 0.0 4.0 0.00 0.02 0.01 78 1010.2
20260509191556 59 244 1.0 4.0 0.00 0.02 0.01 78 1010.2
20260509191034 59 130 1.0 4.0 0.00 0.02 0.01 78 1010.3
20260509190538 58 205 1.0 4.0 0.00 0.02 0.01 79 1010.4
20260509190057 58 134 0.0 4.0 0.00 0.02 0.01 81 1010.5
20260509185534 58 189 2.0 4.0 0.00 0.02 0.01 81 1010.7
20260509185036 57 215 1.0 5.0 0.00 0.02 0.01 82 1010.7
20260509184556 57 201 2.0 5.0 0.00 0.02 0.01 82 1010.8
20260509184034 57 227 1.0 6.0 0.00 0.02 0.01 84 1010.8
20260509183537 57 239 2.0 6.0 0.00 0.02 0.01 83 1010.7
20260509183058 57 182 1.0 6.0 0.00 0.02 0.01 84 1010.6
20260509182533 57 200 3.0 7.0 0.00 0.02 0.01 82 1010.6
20260509182034 57 194 3.0 7.0 0.00 0.02 0.01 84 1010.7
20260509181554 56 115 1.0 4.0 0.00 0.02 0.01 87 1010.7
20260509181036 56 180 1.0 4.0 0.00 0.02 0.01 86 1010.6
20260509180537 55 113 1.0 3.0 0.00 0.02 0.01 88 1010.6
20260509180055 55 188 1.0 3.0 0.00 0.02 0.01 87 1010.7
20260509175537 55 208 0.0 2.0 0.00 0.03 0.01 87 1010.9
20260509175037 55 213 0.0 2.0 0.00 0.03 0.01 87 1010.8
20260509174600 54 0 0.0 2.0 0.00 0.03 0.01 87 1010.9
20260509174034 54 271 0.0 2.0 0.00 0.03 0.01 88 1011.0
20260509173536 54 0 0.0 2.0 0.00 0.03 0.01 89 1011.1
20260509173051 54 209 0.0 2.0 0.00 0.03 0.01 88 1011.1
20260509172534 54 209 0.0 2.0 0.00 0.03 0.01 88 1011.2
20260509172034 54 181 1.0 2.0 0.00 0.03 0.01 88 1011.2
20260509171545 54 239 1.0 2.0 0.00 0.03 0.01 88 1011.3
20260509171037 54 213 1.0 2.0 0.00 0.03 0.01 89 1011.4
20260509170537 54 233 1.0 3.0 0.00 0.03 0.01 89 1011.4
20260509170054 53 206 1.0 4.0 0.00 0.03 0.01 89 1011.5
20260509165537 53 245 2.0 4.0 0.00 0.03 0.01 90 1011.4
20260509165040 53 219 1.0 2.0 0.00 0.03 0.01 90 1011.3
20260509164550 53 187 1.0 2.0 0.00 0.03 0.01 90 1011.2
20260509164037 53 195 0.0 2.0 0.00 0.03 0.01 89 1011.2
20260509163537 52 168 1.0 3.0 0.00 0.03 0.01 89 1011.0
20260509163053 53 167 0.0 3.0 0.00 0.03 0.01 89 1010.9
20260509162535 53 0 0.0 3.0 0.00 0.03 0.01 89 1011.0
20260509162037 53 205 1.0 3.0 0.00 0.03 0.01 89 1011.0
20260509161547 53 160 0.0 2.0 0.00 0.03 0.01 88 1010.8
20260509161037 53 86 0.0 2.0 0.00 0.03 0.01 88 1010.7
20260509160534 53 76 0.0 2.0 0.00 0.03 0.01 88 1010.8
20260509160048 53 76 1.0 2.0 0.00 0.03 0.01 88 1011.0
20260509155534 53 56 1.0 2.0 0.00 0.03 0.01 87 1011.1
20260509155034 53 81 1.0 2.0 0.00 0.03 0.01 86 1011.3
20260509154545 53 320 0.0 1.0 0.00 0.03 0.01 85 1011.6
20260509154034 53 0 0.0 2.0 0.00 0.03 0.01 84 1011.8
20260509153535 53 0 0.0 2.0 0.00 0.03 0.01 84 1011.9
20260509153100 54 0 0.0 2.0 0.00 0.03 0.01 84 1012.0
20260509152536 54 0 0.0 2.0 0.00 0.03 0.01 84 1012.2
20260509152034 54 0 0.0 2.0 0.00 0.03 0.01 83 1012.1
20260509151544 54 277 0.0 2.0 0.00 0.03 0.01 83 1012.0
20260509151037 54 0 0.0 3.0 0.00 0.03 0.01 83 1011.9
20260509150535 54 277 0.0 3.0 0.00 0.03 0.01 83 1011.9
20260509150049 54 312 1.0 2.0 0.00 0.03 0.01 83 1011.9
20260509145535 54 207 1.0 2.0 0.00 0.03 0.01 83 1011.9
20260509145033 54 194 1.0 2.0 0.00 0.03 0.01 82 1011.9
20260509144548 54 196 0.0 2.0 0.00 0.03 0.01 80 1011.8
20260509144035 55 271 0.0 2.0 0.00 0.03 0.01 79 1011.8
20260509143534 55 275 0.0 1.0 0.00 0.03 0.01 80 1011.7
20260509143046 55 0 0.0 2.0 0.00 0.03 0.01 78 1011.6
20260509142538 54 276 0.0 2.0 0.00 0.03 0.01 78 1011.7
20260509142033 54 246 0.0 2.0 0.00 0.03 0.01 78 1011.5
20260509141546 54 0 0.0 2.0 0.00 0.03 0.01 79 1011.5
20260509141038 54 0 1.0 2.0 0.00 0.03 0.01 80 1011.5
20260509140537 54 195 1.0 2.0 0.00 0.03 0.01 80 1011.5
20260509140045 54 0 0.0 2.0 0.00 0.03 0.01 80 1011.4
20260509135541 54 190 0.0 2.0 0.00 0.03 0.01 81 1011.3
20260509135038 54 194 0.0 1.0 0.00 0.03 0.01 81 1011.4
20260509134544 53 261 0.0 2.0 0.00 0.03 0.01 81 1011.3
20260509134034 53 0 0.0 2.0 0.00 0.03 0.01 82 1011.2
20260509133537 53 0 0.0 2.0 0.01 0.03 0.01 82 1011.3
20260509133047 53 0 0.0 2.0 0.01 0.03 0.01 81 1011.4
20260509132534 53 159 0.0 2.0 0.01 0.03 0.01 81 1011.3
20260509132033 53 0 0.0 2.0 0.01 0.03 0.01 81 1011.2
20260509131545 53 0 0.0 2.0 0.01 0.03 0.01 81 1011.2
20260509131033 53 196 1.0 2.0 0.01 0.03 0.01 82 1011.2
20260509130534 53 150 0.0 2.0 0.01 0.03 0.01 81 1011.0
20260509130100 53 78 0.0 3.0 0.01 0.03 0.01 82 1010.7
20260509125538 53 0 1.0 3.0 0.01 0.03 0.01 81 1011.0
20260509125033 53 62 2.0 3.0 0.01 0.03 0.01 81 1010.9
20260509124557 53 0 0.0 2.0 0.01 0.03 0.01 80 1011.0
20260509124034 53 67 1.0 2.0 0.01 0.03 0.01 79 1011.0
20260509123534 53 0 0.0 2.0 0.00 0.02 0.00 79 1011.0
20260509123046 53 70 1.0 2.0 0.00 0.02 0.00 79 1011.0
20260509122534 53 0 0.0 2.0 0.00 0.02 0.00 78 1011.1
20260509122037 53 329 0.0 2.0 0.00 0.02 0.00 79 1011.2
20260509121550 53 53 0.0 2.0 0.00 0.02 0.00 79 1011.0
20260509121034 52 54 0.0 1.0 0.00 0.02 0.00 79 1010.9
20260509120537 52 61 0.0 2.0 0.00 0.02 0.00 78 1011.0
20260509120049 52 0 0.0 2.0 0.00 0.02 0.00 79 1010.9
20260509115533 52 0 0.0 2.0 0.00 0.02 0.00 79 1011.0
20260509115036 52 5 0.0 2.0 0.00 0.02 0.00 79 1010.9
20260509114556 52 71 0.0 2.0 0.00 0.02 0.00 79 1010.8
20260509114035 52 0 0.0 2.0 0.00 0.02 0.00 79 1010.6
20260509113534 52 90 0.0 2.0 0.00 0.02 0.00 79 1010.7
20260509113057 52 5 0.0 2.0 0.00 0.02 0.00 78 1010.8
20260509112534 52 0 0.0 2.0 0.00 0.02 0.00 78 1010.8
20260509112034 52 0 0.0 2.0 0.00 0.02 0.00 78 1010.7
20260509111544 52 0 0.0 2.0 0.00 0.02 0.00 78 1010.9
20260509111034 52 0 0.0 2.0 0.00 0.02 0.00 78 1010.8
20260509110537 52 0 0.0 2.0 0.00 0.02 0.00 78 1010.7
20260509110050 52 65 0.0 2.0 0.00 0.02 0.00 77 1010.7
20260509105538 52 0 0.0 2.0 0.00 0.02 0.00 77 1010.6
20260509105034 52 71 0.0 2.0 0.00 0.02 0.00 77 1010.6
20260509104547 52 0 1.0 2.0 0.00 0.02 0.00 77 1010.7
20260509104033 52 0 0.0 2.0 0.00 0.02 0.00 77 1010.8
20260509103533 52 68 0.0 2.0 0.00 0.02 0.00 77 1010.5
20260509103057 52 0 0.0 2.0 0.00 0.02 0.00 77 1010.4
20260509102538 52 0 0.0 2.0 0.00 0.02 0.00 77 1010.5
20260509102038 52 65 0.0 2.0 0.00 0.02 0.00 77 1010.5
20260509101600 52 61 0.0 2.0 0.00 0.02 0.00 77 1010.4
20260509101036 52 51 0.0 2.0 0.00 0.02 0.00 77 1010.4
20260509100537 52 59 0.0 2.0 0.00 0.02 0.00 77 1010.4
20260509100045 52 0 0.0 2.0 0.00 0.02 0.00 76 1010.4
20260509095533 51 57 0.0 2.0 0.00 0.02 0.00 76 1010.3
20260509095038 51 0 0.0 2.0 0.00 0.02 0.00 76 1010.3
20260509094556 52 0 1.0 2.0 0.00 0.02 0.00 77 1010.3
20260509094039 51 0 0.0 2.0 0.00 0.02 0.00 77 1010.3
20260509093537 51 74 0.0 0.0 0.00 0.02 0.00 76 1010.3
20260509093050 51 0 0.0 2.0 0.00 0.02 0.00 76 1010.6
20260509092536 51 0 0.0 2.0 0.00 0.02 0.00 76 1010.6
20260509092037 51 0 0.0 2.0 0.00 0.02 0.00 76 1010.5
20260509091548 51 0 0.0 0.0 0.00 0.02 0.00 76 1010.6
20260509091039 51 0 0.0 0.0 0.00 0.02 0.00 75 1010.6
20260509090536 51 0 0.0 2.0 0.00 0.02 0.00 75 1010.5
20260509090058 51 0 0.0 2.0 0.00 0.02 0.00 75 1010.5
20260509085534 51 0 0.0 2.0 0.00 0.02 0.00 75 1010.6
20260509085033 52 0 0.0 2.0 0.00 0.02 0.00 76 1010.6
20260509084548 52 0 0.0 2.0 0.00 0.02 0.00 76 1010.6
20260509084037 52 0 0.0 2.0 0.00 0.02 0.00 76 1010.7
20260509083537 52 63 0.0 2.0 0.00 0.02 0.00 76 1010.7
20260509083057 52 74 0.0 3.0 0.00 0.02 0.00 76 1010.7
20260509082537 52 0 0.0 3.0 0.00 0.02 0.00 76 1010.7
20260509082037 52 85 1.0 2.0 0.00 0.02 0.00 76 1010.7
20260509081552 52 0 0.0 2.0 0.00 0.02 0.00 75 1010.8
20260509081037 52 0 0.0 2.0 0.00 0.02 0.00 75 1010.8
20260509080540 52 0 0.0 2.0 0.00 0.02 0.00 75 1010.9
20260509080052 52 84 0.0 2.0 0.00 0.02 0.00 75 1010.9
20260509075537 52 0 0.0 2.0 0.00 0.02 0.00 75 1011.0
20260509075037 52 67 0.0 2.0 0.00 0.02 0.00 74 1010.9
20260509074552 52 68 0.0 2.0 0.00 0.02 0.00 74 1010.9
20260509074036 52 0 1.0 3.0 0.00 0.02 0.00 74 1010.9
20260509073537 52 69 1.0 3.0 0.00 0.02 0.00 74 1010.9
20260509073053 52 65 0.0 2.0 0.00 0.02 0.00 74 1010.9
20260509072535 52 66 0.0 2.0 0.00 0.02 0.00 74 1011.0
20260509072036 52 83 0.0 2.0 0.00 0.02 0.00 74 1011.1
20260509071546 52 62 0.0 2.0 0.00 0.02 0.00 74 1011.1
20260509071036 52 0 0.0 2.0 0.00 0.02 0.00 73 1011.2
20260509070534 52 92 0.0 2.0 0.00 0.02 0.00 73 1011.1
20260509070044 52 57 0.0 2.0 0.00 0.02 0.00 73 1011.2
20260509065539 52 0 0.0 2.0 0.00 0.02 0.00 72 1011.2
20260509065037 52 63 0.0 2.0 0.00 0.02 0.00 72 1011.3
20260509064547 52 67 0.0 2.0 0.00 0.02 0.00 72 1011.3
20260509064036 53 66 1.0 2.0 0.00 0.02 0.00 72 1011.3
20260509063538 53 66 0.0 2.0 0.00 0.02 0.00 72 1011.3
20260509063046 53 0 0.0 2.0 0.00 0.02 0.00 71 1011.3
20260509062537 53 61 0.0 2.0 0.00 0.02 0.00 71 1011.3
20260509062034 53 71 1.0 3.0 0.00 0.02 0.00 71 1011.4
20260509061549 53 44 0.0 3.0 0.00 0.02 0.00 71 1011.3
20260509061036 53 70 1.0 3.0 0.00 0.02 0.00 71 1011.3
20260509060536 53 74 1.0 3.0 0.00 0.02 0.00 70 1011.4
20260509060104 53 51 1.0 3.0 0.00 0.02 0.00 70 1011.3
20260509055538 53 64 1.0 2.0 0.00 0.02 0.00 70 1011.4
20260509055034 53 70 0.0 2.0 0.00 0.02 0.00 70 1011.3
20260509054551 54 64 0.0 2.0 0.00 0.02 0.00 70 1011.3
20260509054040 54 67 0.0 2.0 0.00 0.02 0.00 70 1011.5
20260509053537 54 67 0.0 2.0 0.00 0.02 0.00 69 1011.4
20260509053106 54 74 0.0 2.0 0.00 0.02 0.00 69 1011.3
20260509052540 54 58 0.0 2.0 0.00 0.02 0.00 69 1011.4
20260509052036 54 0 0.0 2.0 0.00 0.02 0.00 69 1011.6
20260509051552 54 67 0.0 2.0 0.00 0.02 0.00 69 1011.7
20260509051037 54 0 0.0 2.0 0.00 0.02 0.00 69 1011.8
20260509050538 54 66 0.0 2.0 0.00 0.02 0.00 69 1011.8
20260509050049 54 40 0.0 2.0 0.00 0.02 0.00 68 1011.8
20260509045537 54 72 0.0 2.0 0.00 0.02 0.00 67 1011.9
20260509045036 54 0 0.0 2.0 0.00 0.02 0.00 67 1011.8
20260509044609 54 61 0.0 2.0 0.00 0.02 0.00 67 1011.7
20260509044037 55 0 0.0 2.0 0.00 0.02 0.00 66 1011.8
20260509043537 55 0 0.0 2.0 0.00 0.02 0.00 66 1011.8
20260509043122 55 61 0.0 0.0 0.00 0.02 0.00 65 1011.9
20260509042534 55 0 0.0 0.0 0.00 0.02 0.00 65 1011.8
20260509042037 55 0 0.0 0.0 0.01 0.02 0.00 65 1011.7
20260509041549 55 0 0.0 2.0 0.01 0.02 0.00 64 1011.7
20260509041034 55 0 0.0 2.0 0.01 0.02 0.00 64 1011.8
20260509040536 55 0 0.0 2.0 0.01 0.02 0.00 64 1011.7
20260509040048 55 0 0.0 2.0 0.01 0.02 0.00 63 1011.8
20260509035534 55 0 0.0 2.0 0.01 0.02 0.02 63 1011.9
20260509035034 55 73 0.0 2.0 0.01 0.02 0.02 64 1011.8
20260509034549 55 44 0.0 2.0 0.01 0.02 0.02 65 1011.9
20260509034037 55 0 0.0 2.0 0.01 0.02 0.02 64 1012.1
20260509033537 55 259 0.0 2.0 0.01 0.02 0.02 63 1012.3
20260509033046 55 0 0.0 2.0 0.01 0.02 0.02 64 1012.3
20260509032537 55 259 0.0 2.0 0.01 0.02 0.02 63 1012.4
20260509032036 55 0 0.0 2.0 0.00 0.01 0.01 63 1012.1
20260509031559 55 0 0.0 2.0 0.00 0.01 0.01 64 1012.2
20260509031034 55 0 0.0 2.0 0.00 0.01 0.01 63 1012.3
20260509030534 55 0 0.0 0.0 0.00 0.01 0.01 63 1012.4
20260509030107 55 0 0.0 2.0 0.00 0.01 0.01 63 1012.3
20260509025536 55 0 0.0 2.0 0.00 0.01 0.01 63 1012.3
20260509025038 55 0 0.0 2.0 0.00 0.01 0.01 64 1012.3
20260509024546 56 257 0.0 2.0 0.00 0.01 0.01 64 1012.2
20260509024034 56 257 1.0 2.0 0.00 0.01 0.01 65 1012.2
20260509023535 56 271 1.0 2.0 0.00 0.01 0.01 64 1012.0
20260509023055 56 0 0.0 2.0 0.00 0.01 0.01 61 1011.8
20260509022535 56 0 0.0 1.0 0.00 0.01 0.01 61 1011.8